SPACEBEE-108 (48895 NORAD) Tracking and Keplerian Element Data

This shows tracking and keplerian element data for the satellite.

Feedback or suggestion? Click here.




ElementValue
Catalog48895
NameSPACEBEE-108
Epoch Orbit1387
Epoch Day268.6061261
Epoch Year2021
RAAN36.0722
Inclination97.5266
Eccentricity0.0008417
Argument of Perigee303.6255
Mean Anonmoly56.4172
Mean Motion15.12322877
Decay Rate2.953E-05
L11 48895U 21059S 21268.60612610 .00002953 00000-0 17410-3 0 9997
L22 48895 97.5266 36.0722 0008417 303.6255 56.4172 15.12322877 13877

Live tracking and technical data element details for SPACEBEE-108 (NORAD 48895). SPACEBEE-108 can be tracked NOW for your location showing map with azimuth and elevation plus other details from your city location.

Track the satellite on the map from your city or location and see movement details for azimuth, elevation, latitude, longitude, range, height, and movement on the map or in text.







IsCatalogInMostPopularTable: catalog: 48895, numindb: 17
Update: records affected: 1



GetName: 48895 SPACEBEE-108

Hit Count: updated at: Sun, 26 Sep 2021 15:28:28 GMT